Nashua, NH

11:28 AM EST on December 12, 2019 (GMT -0500)
Boire

Weather History for KASH - October, 2019

Change the Weather History Date:

Tuesday, October 22, 2019

  Actual Average Record
Temperature  
Mean Temperature 49 °F -  
Max Temperature 59 °F 61 °F 85 °F (1979)
Min Temperature 39 °F 36 °F 17 °F (1948)
Degree Days  
Heating Degree Days 16    
Moisture  
Dew Point 49 °F    
Average Humidity 92    
Maximum Humidity 100    
Minimum Humidity 72    
Precipitation  
Precipitation 0.00 in - - ()
Sea Level Pressure  
Sea Level Pressure 30.09 in    
Wind  
Wind Speed 5 mph ()    
Max Wind Speed 13 mph    
Max Gust Speed -    
Visibility 7.6 miles    
Events Rain    
Averages and records for this station are not official NWS values.
T = Trace of Precipitation, MM = Missing Value Source: Averaged Metar Reports

Daily Weather History Graph

Daily Weather History Graph

Search for Another Location

Airport or City:

Astronomy

Oct. 22, 2019 Rise Set
Actual Time 7:07 AM EDT 5:52 PM EDT
Civil Twilight 6:38 AM EDT 6:21 PM EDT
Nautical Twilight 6:05 AM EDT 6:54 PM EDT
Astronomical Twilight 5:32 AM EDT 7:27 PM EDT
Moon 12:02 AM EDT (10/22) 3:10 PM EDT (10/22)
Length of Visible Light 11h 43m
Length of Day
10h 45m
Last Quarter, 37% of the Moon is Illuminated
Oct 22
Last Quarter
Oct 27
New
Nov 4
First Quarter
Nov 12
Full
Nov 19
Last Quarter

Hourly Weather History & Observations

Time (EDT) Temp. Windchill Dew Point Humidity Pressure Visibility Wind Dir Wind Speed Gust Speed Precip Events Conditions
12:56 AM 41.0 °F 37.1 °F 41.0 °F 100% 30.20 in 10.0 mi WNW 5.8 mph - N/A   Clear
1:56 AM 42.1 °F 40.2 °F 42.1 °F 100% 30.20 in 10.0 mi WNW 3.5 mph - N/A   Clear
2:56 AM 42.1 °F 37.7 °F 42.1 °F 100% 30.20 in 10.0 mi NW 6.9 mph - N/A   Clear
3:56 AM 42.1 °F 40.2 °F 42.1 °F 100% 30.18 in 10.0 mi West 3.5 mph - N/A   Clear
4:56 AM 39.9 °F 36.7 °F 39.9 °F 100% 30.18 in 10.0 mi NW 4.6 mph - N/A   Clear
5:56 AM 41.0 °F 36.4 °F 41.0 °F 100% 30.17 in 10.0 mi NW 6.9 mph - N/A   Clear
6:56 AM 42.1 °F 37.7 °F 42.1 °F 100% 30.18 in 10.0 mi WNW 6.9 mph - N/A   Clear
7:56 AM 44.1 °F 42.5 °F 44.1 °F 100% 30.19 in 10.0 mi NNW 3.5 mph - N/A   Clear
8:56 AM 45.0 °F - 45.0 °F 100% 30.20 in 10.0 mi Calm Calm - N/A   Clear
9:56 AM 50.0 °F - 46.0 °F 86% 30.19 in 10.0 mi ENE 3.5 mph - N/A   Clear
10:22 AM 51.8 °F - 46.4 °F 82% 30.15 in 10.0 mi East 6.9 mph - N/A   Scattered Clouds
10:35 AM 51.8 °F - 48.2 °F 88% 30.15 in 10.0 mi East 8.1 mph - N/A   Mostly Cloudy
10:56 AM 54.0 °F - 48.9 °F 83% 30.17 in 10.0 mi East 8.1 mph - N/A   Mostly Cloudy
11:56 AM 57.0 °F - 48.9 °F 74% 30.16 in 10.0 mi East 11.5 mph - N/A   Mostly Cloudy
12:56 PM 59.0 °F - 50.0 °F 72% 30.14 in 10.0 mi ENE 6.9 mph - N/A   Overcast
1:56 PM 59.0 °F - 50.0 °F 72% 30.13 in 10.0 mi ENE 9.2 mph - N/A   Overcast
2:09 PM 59.0 °F - 50.0 °F 72% 30.10 in 10.0 mi ENE 6.9 mph - N/A   Overcast
2:56 PM 57.9 °F - 50.0 °F 75% 30.10 in 10.0 mi ESE 10.4 mph - N/A   Overcast
3:56 PM 55.9 °F - 50.0 °F 80% 30.07 in 10.0 mi East 12.7 mph - N/A   Overcast
4:56 PM 55.0 °F - 52.0 °F 89% 30.07 in 10.0 mi East 8.1 mph - N/A   Overcast
5:05 PM 55.4 °F - 51.8 °F 88% 30.07 in 10.0 mi East 8.1 mph - N/A   Overcast
5:49 PM 55.4 °F - 51.8 °F 88% 30.05 in 10.0 mi East 12.7 mph - N/A   Overcast
5:56 PM 55.0 °F - 51.1 °F 86% 30.07 in 10.0 mi East 10.4 mph - N/A   Overcast
6:56 PM 53.1 °F - 53.1 °F 100% 30.07 in 4.0 mi East 6.9 mph - N/A Rain Light Rain
8:56 PM 53.1 °F - 53.1 °F 100% 30.01 in 6.0 mi East 5.8 mph - N/A Rain Light Rain
9:56 PM 54.0 °F - 54.0 °F 100% 29.99 in 3.0 mi East 6.9 mph - N/A Rain Light Rain
10:05 PM 53.6 °F - 53.6 °F 100% 29.97 in 2.5 mi East 4.6 mph - N/A Rain Light Rain
10:54 PM 53.6 °F - 53.6 °F 100% 29.95 in 1.8 mi East 3.5 mph - N/A Rain Rain
10:56 PM 54.0 °F - 54.0 °F 100% 29.97 in 1.8 mi East 3.5 mph - N/A Rain Rain
11:13 PM 53.6 °F - 53.6 °F 100% 29.95 in 2.0 mi Calm Calm - N/A Rain Light Rain
11:32 PM 53.6 °F - 53.6 °F 100% 29.94 in 1.8 mi NNW 3.5 mph - N/A Rain Light Rain
11:41 PM 53.6 °F - 53.6 °F 100% 29.92 in 2.0 mi ENE 4.6 mph - N/A Rain Light Rain
11:52 PM 53.6 °F - 53.6 °F 100% 29.92 in 2.5 mi ENE 3.5 mph - N/A Rain Light Rain
11:56 PM 54.0 °F - 54.0 °F 100% 29.93 in 2.5 mi Calm Calm - N/A Rain Light Rain